Kansas City International Airport Airport (MCI)

 

Airport Diagram
Current Weather/Forecast (VFR Conditions)
METAR KMCI 280753Z 16008KT 10SM CLR 17/13 A2987 RMK AO2 SLP106 T01670133
TAF KMCI 280520Z 2806/2906 16012KT P6SM SCT250 FM281500 18016G24KT P6SM BKN250

All Charts
General
Chart Name Download
AIRPORT DIAGRAM
TAKEOFF MINIMUMS
ALTERNATE MINIMUMS
HOT SPOT

Departures
Chart Name Download
CHIEF SEVEN
LAKES THREE
RACER SEVEN
ROYAL NINE
TIFTO SIX
WILDCAT FIVE

Arrivals
Chart Name Download
BRAYMER SEVEN
BRAYMER SEVEN, CONT.1
JHAWK SIX
JHAWK SIX, CONT.1
JSONN ONE (RNAV)
JSONN ONE (RNAV), CONT.1
TYGER SIX
TYGER SIX, CONT.1

Approaches
Chart Name Download
ILS OR LOC RWY 01L
ILS OR LOC RWY 01R
ILS OR LOC RWY 09
ILS OR LOC RWY 19L
ILS OR LOC RWY 19R
ILS OR LOC RWY 27
ILS RWY 01R (SA CAT I)
ILS RWY 19R (SA CAT I)
ILS RWY 01R (CAT II - III)
ILS RWY 19R (CAT II - III)
RNAV (RNP) Z RWY 01L
RNAV (RNP) Z RWY 01R
RNAV (RNP) Z RWY 09
RNAV (RNP) Z RWY 19L
RNAV (RNP) Z RWY 19R
RNAV (RNP) Z RWY 27
RNAV (GPS) Y RWY 01L
RNAV (GPS) Y RWY 01R
RNAV (GPS) Y RWY 09
RNAV (GPS) Y RWY 19L
RNAV (GPS) Y RWY 19R
RNAV (GPS) Y RWY 27